| time (UTC) | temp F | wind direction | speed knots | gust knots | rain 1hr in | rain 24hr in | rain mn in | humidity % | barometer mb |
| 20260508153330 | 58 | 173 | 2.6 | 7.8 | 0.00 | 0.00 | 0.00 | 41 | 1010.1 |
| 20260508151820 | 57 | 233 | 2.6 | 7.8 | 0.00 | 0.00 | 0.00 | 43 | 1010.1 |
| 20260508150321 | 56 | 277 | 2.6 | 9.6 | 0.00 | 0.00 | 0.00 | 42 | 1010.3 |
| 20260508144827 | 56 | 358 | 1.7 | 9.6 | 0.00 | 0.00 | 0.00 | 43 | 1010.3 |
| 20260508143324 | 56 | 333 | 2.6 | 7.8 | 0.00 | 0.00 | 0.00 | 41 | 1010.5 |
| 20260508141833 | 54 | 356 | 2.6 | 8.7 | 0.00 | 0.00 | 0.00 | 43 | 1010.5 |
| 20260508140345 | 54 | 160 | 1.7 | 7.0 | 0.00 | 0.00 | 0.00 | 43 | 1010.6 |
| 20260508134833 | 54 | 265 | 2.6 | 7.0 | 0.00 | 0.00 | 0.00 | 42 | 1010.6 |
| 20260508133348 | 55 | 295 | 2.6 | 5.2 | 0.00 | 0.00 | 0.00 | 43 | 1010.7 |
| 20260508131830 | 55 | 237 | 2.6 | 7.0 | 0.00 | 0.00 | 0.00 | 45 | 1010.7 |
| 20260508130322 | 55 | 271 | 2.6 | 7.0 | 0.00 | 0.00 | 0.00 | 44 | 1010.7 |
| 20260508124826 | 54 | 321 | 0.9 | 2.6 | 0.00 | 0.00 | 0.00 | 46 | 1010.7 |
| 20260508123324 | 53 | 31 | 1.7 | 5.2 | 0.00 | 0.00 | 0.00 | 50 | 1010.7 |
| 20260508121818 | 50 | 232 | 1.7 | 4.3 | 0.00 | 0.00 | 0.00 | 54 | 1010.7 |
| 20260508120332 | 49 | 231 | 2.6 | 5.2 | 0.00 | 0.00 | 0.00 | 56 | 1010.8 |
| 20260508114823 | 47 | 223 | 0.9 | 3.5 | 0.00 | 0.00 | 0.00 | 59 | 1010.8 |
| 20260508113327 | 46 | 162 | 0.9 | 2.6 | 0.00 | 0.00 | 0.00 | 62 | 1010.8 |
| 20260508111820 | 44 | 191 | 0.9 | 1.7 | 0.00 | 0.00 | 0.00 | 67 | 1010.7 |
| 20260508110324 | 43 | 235 | 0.9 | 2.6 | 0.00 | 0.00 | 0.00 | 70 | 1010.7 |
| 20260508104818 | 42 | 146 | 0.0 | 0.0 | 0.00 | 0.00 | 0.00 | 73 | 1010.6 |
| 20260508103323 | 39 | 146 | 0.0 | 0.0 | 0.00 | 0.00 | 0.00 | 77 | 1010.4 |
| 20260508101817 | 39 | 146 | 0.0 | 0.0 | 0.00 | 0.00 | 0.00 | 77 | 1010.2 |
| 20260508100326 | 39 | 146 | 0.0 | 0.0 | 0.00 | 0.00 | 0.00 | 76 | 1009.9 |
| 20260508094822 | 38 | 146 | 0.0 | 0.0 | 0.00 | 0.00 | 0.00 | 77 | 1009.9 |
| 20260508093336 | 37 | 146 | 0.0 | 0.0 | 0.00 | 0.00 | 0.00 | 81 | 1009.9 |
| 20260508091848 | 38 | 146 | 0.0 | 0.0 | 0.00 | 0.00 | 0.00 | 80 | 1009.8 |
| 20260508090333 | 38 | 146 | 0.0 | 0.0 | 0.00 | 0.00 | 0.00 | 79 | 1009.8 |
| 20260508084833 | 37 | 146 | 0.0 | 0.0 | 0.00 | 0.00 | 0.00 | 81 | 1009.6 |
| 20260508083346 | 37 | 146 | 0.0 | 0.0 | 0.00 | 0.00 | 0.00 | 81 | 1009.7 |
| 20260508081818 | 38 | 146 | 0.0 | 0.0 | 0.00 | 0.00 | 0.00 | 78 | 1009.4 |
| 20260508080331 | 39 | 146 | 0.0 | 0.0 | 0.00 | 0.00 | 0.00 | 73 | 1009.4 |
| 20260508074827 | 40 | 146 | 0.0 | 0.0 | 0.00 | 0.01 | 0.00 | 74 | 1008.8 |
| 20260508073331 | 40 | 146 | 0.0 | 0.0 | 0.00 | 0.01 | 0.00 | 75 | 1008.5 |
| 20260508071824 | 40 | 146 | 0.0 | 0.0 | 0.00 | 0.01 | 0.00 | 73 | 1008.5 |
| 20260508070346 | 41 | 146 | 0.0 | 0.0 | 0.00 | 0.01 | 0.00 | 71 | 1008.4 |
| 20260508064838 | 41 | 146 | 0.0 | 0.0 | 0.00 | 0.01 | 0.00 | 71 | 1008.4 |
| 20260508063322 | 42 | 146 | 0.0 | 0.9 | 0.00 | 0.01 | 0.00 | 71 | 1008.4 |
| 20260508061826 | 42 | 146 | 0.0 | 0.0 | 0.00 | 0.01 | 0.00 | 70 | 1008.5 |
| 20260508060346 | 43 | 146 | 0.0 | 0.9 | 0.00 | 0.01 | 0.00 | 69 | 1008.5 |
| 20260508054829 | 42 | 147 | 0.0 | 0.0 | 0.00 | 0.01 | 0.00 | 71 | 1008.6 |
| 20260508053344 | 43 | 146 | 0.0 | 0.9 | 0.00 | 0.01 | 0.00 | 70 | 1008.8 |
| 20260508051819 | 43 | 146 | 0.0 | 0.0 | 0.00 | 0.01 | 0.00 | 68 | 1008.9 |
| 20260508050314 | 44 | 146 | 0.0 | 0.0 | 0.00 | 0.01 | 0.00 | 66 | 1009.0 |
| 20260508044828 | 45 | 146 | 0.0 | 0.0 | 0.00 | 0.02 | 0.00 | 63 | 1009.1 |
| 20260508043344 | 46 | 216 | 0.0 | 0.9 | 0.00 | 0.02 | 0.00 | 61 | 1009.3 |
| 20260508041830 | 46 | 214 | 0.0 | 0.9 | 0.00 | 0.02 | 0.00 | 62 | 1009.3 |
| 20260508040338 | 47 | 222 | 0.0 | 0.0 | 0.00 | 0.02 | 0.00 | 60 | 1009.3 |
| 20260508034821 | 47 | 229 | 0.0 | 0.9 | 0.00 | 0.04 | 0.02 | 61 | 1009.3 |
| 20260508033322 | 48 | 228 | 0.0 | 0.9 | 0.00 | 0.04 | 0.02 | 59 | 1009.3 |
| 20260508031815 | 49 | 296 | 0.9 | 3.5 | 0.00 | 0.04 | 0.02 | 58 | 1009.2 |
| 20260508030327 | 49 | 248 | 0.9 | 4.3 | 0.00 | 0.04 | 0.02 | 57 | 1009.0 |
| 20260508024823 | 49 | 266 | 0.9 | 4.3 | 0.00 | 0.04 | 0.02 | 56 | 1009.1 |
| 20260508023326 | 50 | 226 | 0.9 | 1.7 | 0.00 | 0.04 | 0.02 | 55 | 1009.1 |
| 20260508021820 | 50 | 210 | 1.7 | 4.3 | 0.00 | 0.04 | 0.02 | 55 | 1009.0 |
| 20260508020327 | 50 | 260 | 0.9 | 3.5 | 0.00 | 0.04 | 0.02 | 56 | 1009.0 |
| 20260508014826 | 51 | 237 | 0.9 | 2.6 | 0.00 | 0.04 | 0.02 | 53 | 1009.0 |
| 20260508013343 | 51 | 198 | 1.7 | 2.6 | 0.00 | 0.04 | 0.02 | 52 | 1008.7 |
| 20260508011828 | 52 | 210 | 0.9 | 3.5 | 0.00 | 0.04 | 0.02 | 52 | 1008.5 |
| 20260508010331 | 53 | 229 | 0.0 | 2.6 | 0.00 | 0.04 | 0.02 | 51 | 1008.3 |
| 20260508004843 | 53 | 228 | 0.9 | 3.5 | 0.00 | 0.04 | 0.02 | 48 | 1008.2 |
| 20260508003332 | 54 | 261 | 0.9 | 2.6 | 0.00 | 0.04 | 0.02 | 46 | 1007.9 |
| 20260508001825 | 55 | 263 | 0.9 | 3.5 | 0.00 | 0.04 | 0.02 | 44 | 1007.9 |
| 20260508000317 | 55 | 261 | 0.9 | 4.3 | 0.00 | 0.04 | 0.02 | 43 | 1007.8 |
| 20260507234853 | 56 | 257 | 0.9 | 2.6 | 0.00 | 0.05 | 0.02 | 42 | 1007.6 |
| 20260507233338 | 58 | 349 | 1.7 | 4.3 | 0.00 | 0.05 | 0.02 | 40 | 1007.4 |
| 20260507231843 | 59 | 355 | 1.7 | 6.1 | 0.00 | 0.05 | 0.02 | 37 | 1007.3 |
| 20260507230314 | 60 | 271 | 1.7 | 6.1 | 0.00 | 0.05 | 0.02 | 37 | 1007.1 |
| 20260507224829 | 61 | 255 | 1.7 | 7.8 | 0.00 | 0.12 | 0.02 | 36 | 1007.1 |
| 20260507223321 | 60 | 280 | 0.9 | 5.2 | 0.00 | 0.12 | 0.02 | 35 | 1006.8 |
| 20260507221832 | 62 | 77 | 1.7 | 6.1 | 0.00 | 0.12 | 0.02 | 34 | 1006.8 |
| 20260507220324 | 62 | 238 | 3.5 | 10.4 | 0.00 | 0.12 | 0.02 | 34 | 1006.7 |
| 20260507214817 | 63 | 245 | 3.5 | 7.8 | 0.00 | 0.15 | 0.02 | 33 | 1006.5 |
| 20260507213332 | 63 | 253 | 2.6 | 5.2 | 0.00 | 0.15 | 0.02 | 34 | 1006.5 |
| 20260507211826 | 63 | 262 | 2.6 | 10.4 | 0.00 | 0.15 | 0.02 | 33 | 1006.5 |
| 20260507210330 | 63 | 271 | 4.3 | 10.4 | 0.00 | 0.15 | 0.02 | 34 | 1006.6 |
| 20260507204823 | 63 | 302 | 3.5 | 8.7 | 0.00 | 0.19 | 0.02 | 35 | 1006.5 |
| 20260507203329 | 63 | 228 | 2.6 | 7.8 | 0.00 | 0.19 | 0.02 | 34 | 1006.5 |
| 20260507201823 | 63 | 262 | 2.6 | 7.0 | 0.00 | 0.19 | 0.02 | 34 | 1006.3 |
| 20260507200328 | 63 | 283 | 3.5 | 7.8 | 0.00 | 0.19 | 0.02 | 35 | 1006.3 |
| 20260507194820 | 64 | 319 | 1.7 | 5.2 | 0.00 | 0.20 | 0.02 | 37 | 1006.4 |
| 20260507193326 | 63 | 314 | 1.7 | 8.7 | 0.00 | 0.20 | 0.02 | 37 | 1006.6 |
| 20260507191821 | 64 | 253 | 2.6 | 10.4 | 0.00 | 0.20 | 0.02 | 36 | 1006.7 |
| 20260507190326 | 63 | 317 | 1.7 | 6.1 | 0.00 | 0.20 | 0.02 | 36 | 1006.8 |
| 20260507184821 | 63 | 285 | 5.2 | 12.2 | 0.00 | 0.24 | 0.02 | 35 | 1006.8 |
| 20260507183329 | 62 | 4 | 3.5 | 8.7 | 0.00 | 0.24 | 0.02 | 34 | 1007.1 |
| 20260507181847 | 62 | 356 | 2.6 | 6.1 | 0.00 | 0.24 | 0.02 | 34 | 1007.1 |
| 20260507180320 | 62 | 248 | 2.6 | 8.7 | 0.00 | 0.24 | 0.02 | 37 | 1007.4 |
| 20260507174824 | 62 | 6 | 3.5 | 13.0 | 0.00 | 0.24 | 0.02 | 34 | 1007.4 |
| 20260507173318 | 61 | 246 | 1.7 | 11.3 | 0.00 | 0.24 | 0.02 | 35 | 1007.2 |
| 20260507171823 | 62 | 332 | 2.6 | 8.7 | 0.00 | 0.24 | 0.02 | 38 | 1007.3 |
| 20260507170329 | 62 | 332 | 3.5 | 8.7 | 0.00 | 0.24 | 0.02 | 37 | 1007.4 |
| 20260507164846 | 61 | 304 | 3.5 | 11.3 | 0.00 | 0.24 | 0.02 | 37 | 1007.8 |
| 20260507163339 | 61 | 288 | 1.7 | 7.0 | 0.00 | 0.24 | 0.02 | 40 | 1008.0 |
| 20260507161828 | 61 | 325 | 2.6 | 9.6 | 0.00 | 0.24 | 0.02 | 42 | 1008.1 |
| 20260507160321 | 59 | 281 | 1.7 | 6.1 | 0.00 | 0.24 | 0.02 | 47 | 1008.1 |
| 20260507154833 | 59 | 327 | 3.5 | 9.6 | 0.00 | 0.24 | 0.02 | 51 | 1008.2 |